Wind_Speed
8 9 9 8 5 1 3 6 7 8 7 7 8 8 7 6 7 7 8 10 12 13 16 16 15 14 13 11 11 12 13 14 15 14 15 16 16 16 16 16 15 16 16
9 7 7 7 7 8 6 3 1 4 7 8 8 8 8 8 9 8 9 13 14 15 14 15 14 14 14 11 11 10 12 13 14 15 16 16 17 17 17 16 16 16 16
10 10 9 6 5 6 8 8 7 4 0 3 6 8 8 8 7 7 7 8 10 11 12 12 13 14 12 12 11 10 9 10 11 13 14 15 16 18 18 17 16 16 17
7 8 8 8 7 6 5 5 6 7 6 5 3 4 5 4 5 6 6 7 8 9 10 11 11 12 12 12 11 11 11 10 10 11 12 14 14 15 16 17 17 19 19
5 4 5 4 4 5 6 4 3 3 5 6 5 5 5 4 4 5 6 7 8 9 10 10 11 11 11 11 12 12 12 12 12 12 11 13 13 14 16 17 18 19 20
3 2 2 2 2 2 2 2 2 2 1 2 4 5 6 7 7 7 7 7 7 8 9 10 11 12 12 12 12 13 13 13 13 14 13 15 16 16 16 16 17 18 19
2 1 0 1 2 2 1 2 2 2 1 2 2 3 5 6 7 8 9 9 9 9 9 10 11 12 13 13 14 15 16 17 17 17 17 17 17 17 18 18 19 20 20
2 2 2 3 3 4 5 5 5 5 5 5 5 5 6 6 6 7 8 9 11 12 13 13 13 14 14 14 15 16 17 19 20 20 21 21 21 21 20 21 21 21 22
5 4 4 5 5 5 5 6 6 6 7 7 8 8 8 9 9 11 11 11 11 11 13 13 15 16 17 17 18 18 18 19 19 20 21 22 23 24 24 24 24 24 23
8 8 8 7 8 8 8 8 8 8 8 8 8 8 8 10 9 11 12 14 15 15 15 16 16 17 17 18 19 21 22 22 22 23 22 23 23 23 24 25 25 25 26
10 10 11 11 11 10 10 11 10 11 11 11 12 11 12 11 9 12 13 12 14 16 16 18 19 20 21 21 22 23 23 24 24 25 26 26 26 27 26 26 26 26 27
13 13 14 14 14 13 11 11 10 10 10 10 10 11 12 12 11 12 14 15 16 18 19 19 20 21 23 24 25 26 27 27 28 28 28 28 28 28 29 30 31 30 30
16 17 17 17 16 16 15 12 11 11 11 11 12 14 14 15 15 16 16 17 17 19 20 22 23 24 24 25 26 27 29 31 32 32 33 32 32 32 32 32 32 32 32
16 15 16 17 17 18 17 15 14 14 14 15 16 17 18 18 18 18 18 19 19 20 21 22 24 25 27 27 29 31 32 32 33 34 35 36 36 36 37 36 36 36 35
17 18 19 19 18 19 18 18 19 19 19 18 19 18 19 18 19 20 21 22 23 24 26 27 27 29 29 30 31 33 35 36 37 38 38 38 38 39 40 40 40 40 39
17 20 22 22 21 19 19 19 20 20 22 21 21 22 22 22 22 22 22 22 23 24 25 27 29 31 33 33 34 37 38 39 40 41 42 43 44 44 43 42 42 44 44
21 22 23 23 23 21 20 20 20 21 21 23 24 25 24 24 25 25 25 27 27 28 28 29 31 32 32 33 36 38 40 43 45 46 46 45 46 48 49 49 49 48 47
23 23 23 24 23 21 21 21 21 22 22 23 24 25 25 27 27 28 28 28 28 29 28 28 30 31 34 36 40 42 45 46 48 48 49 51 51 51 51 51 52 52 53
26 24 22 22 23 23 23 23 23 23 24 25 26 27 28 29 31 33 33 33 35 35 37 40 40 41 41 42 43 45 46 49 51 54 55 56 55 54 55 56 56 56 55
27 26 25 25 24 25 26 26 27 28 28 29 30 31 32 34 34 34 35 36 37 38 39 41 41 43 46 48 51 52 53 56 57 58 59 60 63 63 60 59 60 62 61
29 28 28 29 27 26 26 26 28 31 33 34 35 36 35 35 36 35 36 37 38 41 43 44 45 47 49 52 56 59 60 62 63 63 64 64 66 66 68 66 63 63 65
31 30 28 29 30 30 29 30 32 34 36 35 34 33 34 34 35 37 38 40 41 44 46 48 51 52 55 58 62 65 67 67 70 69 69 70 71 72 72 73 73 70 68
32 31 30 31 32 33 33 32 32 34 34 34 33 33 34 36 37 39 41 43 46 48 50 53 56 58 59 62 66 68 69 70 72 74 74 74 76 77 77 77 78 77 75
33 34 35 35 35 34 33 33 34 35 35 33 35 38 40 41 42 44 46 47 50 52 54 56 59 62 63 66 66 68 70 71 72 73 76 77 79 81 83 82 81 80 80
35 35 36 37 37 37 36 36 38 38 37 40 42 43 45 46 47 49 51 54 53 54 56 58 61 63 65 67 69 71 74 77 79 80 78 80 82 85 84 84 83 79 78
34 35 36 37 37 38 39 41 42 42 43 46 47 48 50 51 52 53 55 55 56 57 59 60 63 68 72 73 76 78 79 81 83 85 86 87 86 86 87 84 80 78 77
Wind_Direction
78 73 67 59 50 51 240 246 246 247 248 250 252 253 262 258 254 254 257 259 267 262 277 284 286 290 293 295 297 291 283 282 282 282 281 281 281 283 281 281 281 280 280
79 79 70 60 51 58 56 54 296 269 262 263 266 268 272 268 270 269 263 263 269 270 271 279 287 289 290 299 303 301 293 284 280 277 276 277 279 277 276 276 275 276 276
80 77 75 71 57 46 51 50 55 55 342 264 262 265 269 273 275 273 282 274 273 276 280 284 285 287 291 297 299 299 300 301 296 287 281 280 279 279 280 279 277 277 276
77 77 77 73 68 59 41 33 34 35 37 45 4 312 291 281 273 281 273 276 278 282 283 286 284 282 284 287 291 292 294 292 293 289 284 282 282 278 277 275 277 277 276
86 82 80 77 78 82 78 62 35 22 9 10 7 360 1 357 325 307 297 289 284 284 286 290 287 282 282 285 285 285 285 285 283 279 274 279 280 280 278 277 276 278 279
109 100 81 65 47 30 40 53 82 102 115 329 332 336 342 345 339 330 317 307 299 302 303 292 287 286 285 285 284 283 282 283 284 286 288 281 279 281 284 284 284 282 279
92 122 193 275 298 294 281 269 272 287 330 335 331 331 334 327 319 313 316 318 315 309 299 295 295 293 294 291 288 285 286 286 284 283 284 284 280 278 277 282 285 285 284
302 316 325 326 319 319 315 302 291 294 299 301 302 311 317 314 312 313 311 306 304 302 303 304 304 303 301 298 295 294 290 286 284 284 283 285 285 284 281 279 276 276 286
267 273 287 290 292 298 309 316 320 316 312 306 304 304 299 296 301 302 303 302 302 306 306 307 302 299 297 297 297 295 291 289 288 287 287 285 285 286 287 286 285 281 279
280 282 283 284 284 287 293 298 305 310 310 311 316 314 315 313 312 301 294 295 296 294 293 294 296 296 296 297 295 292 290 289 287 286 287 287 287 285 284 284 284 284 283
287 293 295 295 294 295 298 298 301 304 309 309 310 313 310 303 302 301 298 294 291 289 289 288 288 289 290 291 291 290 289 290 290 286 284 282 281 281 282 281 281 281 280
285 290 292 291 290 292 296 296 299 294 297 301 307 307 298 294 289 287 291 297 300 303 303 302 299 295 293 290 287 286 285 285 284 285 285 285 284 283 281 280 278 277 276
278 286 291 288 284 279 278 279 283 287 285 287 288 282 290 300 303 302 301 297 296 296 297 300 300 300 298 297 295 292 289 288 287 286 286 286 285 283 281 280 279 278 277
271 279 286 287 283 281 276 277 277 274 272 276 284 295 299 301 305 306 304 303 303 302 301 298 297 295 295 295 294 293 293 293 292 290 288 284 282 282 283 283 281 279 277
268 279 285 284 281 276 278 276 276 281 284 286 290 292 295 296 299 301 303 305 306 306 305 305 303 301 300 298 296 293 292 292 292 292 290 287 286 286 284 283 281 280 279
272 276 280 279 278 277 273 274 276 282 289 291 293 296 297 297 297 297 300 300 301 302 304 305 304 305 304 303 302 299 296 295 292 290 289 289 288 286 283 281 280 281 281
273 278 282 279 273 269 270 272 276 279 281 283 285 286 289 292 292 294 295 298 301 302 301 301 301 302 301 300 299 297 297 298 298 296 294 292 289 289 288 285 283 280 278
270 274 277 279 276 272 270 270 270 274 277 280 283 283 284 283 286 288 289 288 286 285 290 293 300 299 296 297 297 298 297 295 295 293 293 292 290 287 285 284 283 282 281
268 267 266 268 269 267 267 269 272 273 273 277 281 282 283 284 286 287 287 288 289 287 288 288 288 289 289 290 288 289 291 289 289 290 290 290 289 287 286 284 281 279 278
274 269 265 263 264 266 269 273 275 276 278 281 281 282 280 279 278 279 280 281 282 285 287 289 291 292 293 291 291 290 289 288 286 287 286 287 288 288 285 282 281 281 279
273 269 269 267 265 264 269 276 280 282 283 285 281 279 277 278 279 284 289 290 292 295 296 296 296 295 293 293 293 292 291 289 287 286 286 285 284 285 285 284 280 277 277
272 272 275 273 272 272 271 271 275 276 274 272 275 276 280 283 287 291 293 295 296 296 296 295 294 296 296 295 292 291 291 290 290 289 288 287 286 285 284 283 282 280 277
270 271 278 277 273 270 269 267 268 272 277 280 282 284 286 286 286 288 289 291 293 295 295 295 294 293 295 294 293 292 291 290 289 289 288 288 286 285 283 282 281 281 279
268 270 276 278 276 273 270 268 269 271 279 280 284 285 288 287 286 286 288 290 292 293 293 295 297 298 298 297 295 295 295 294 293 292 291 289 286 283 282 281 280 278 276
270 273 275 277 277 272 269 271 274 277 281 286 289 289 288 288 288 289 291 292 292 294 295 296 297 298 298 299 299 299 298 297 296 293 289 286 285 284 283 282 281 279 277
272 276 278 278 277 276 275 277 280 282 281 285 288 290 291 290 290 294 294 294 295 297 299 300 301 302 301 300 299 298 296 295 294 293 291 289 286 283 284 283 282 279 276
Height
5865 5865 5866 5866 5866 5867 5866 5867 5868 5869 5870 5872 5873 5874 5876 5877 5879 5880 5881 5882 5883 5884 5884 5885 5885 5885 5885 5885 5886 5886 5887 5887 5888 5889 5889 5889 5889 5888 5888 5887 5887 5887 5887
5867 5867 5867 5868 5868 5868 5868 5868 5868 5869 5870 5871 5872 5874 5876 5877 5879 5879 5880 5882 5882 5883 5883 5884 5883 5883 5884 5884 5884 5884 5885 5885 5886 5886 5886 5886 5886 5887 5886 5886 5885 5886 5885
5869 5869 5869 5869 5869 5869 5869 5869 5869 5869 5870 5871 5872 5873 5876 5877 5878 5879 5880 5881 5881 5882 5883 5883 5882 5883 5883 5882 5882 5883 5883 5883 5884 5884 5884 5884 5883 5884 5885 5884 5884 5883 5884
5870 5870 5870 5870 5870 5870 5870 5870 5870 5870 5871 5871 5872 5873 5874 5875 5877 5878 5879 5880 5880 5880 5881 5882 5881 5882 5882 5881 5881 5881 5881 5882 5882 5882 5883 5882 5882 5882 5882 5883 5882 5882 5882
5870 5870 5870 5870 5870 5870 5870 5871 5871 5872 5872 5873 5873 5874 5874 5875 5876 5876 5877 5878 5878 5879 5879 5879 5880 5881 5881 5880 5880 5880 5880 5880 5881 5881 5881 5881 5881 5880 5880 5881 5881 5880 5879
5870 5870 5870 5870 5870 5870 5870 5871 5872 5872 5873 5873 5873 5874 5874 5875 5875 5875 5876 5877 5878 5877 5877 5879 5879 5879 5879 5878 5878 5878 5878 5879 5879 5879 5880 5879 5879 5879 5878 5878 5878 5878 5878
5871 5871 5871 5870 5870 5870 5870 5871 5871 5872 5872 5873 5873 5873 5873 5874 5874 5875 5876 5876 5876 5877 5878 5878 5878 5878 5877 5877 5876 5877 5876 5877 5877 5877 5876 5876 5876 5876 5875 5875 5875 5876 5876
5871 5871 5871 5871 5871 5870 5870 5870 5870 5871 5872 5872 5872 5873 5873 5873 5874 5874 5874 5874 5875 5875 5876 5875 5875 5875 5875 5875 5875 5875 5875 5875 5875 5875 5874 5874 5873 5873 5873 5872 5872 5872 5872
5871 5871 5871 5870 5870 5870 5870 5870 5870 5870 5870 5870 5870 5871 5872 5872 5873 5873 5873 5873 5873 5873 5873 5873 5873 5873 5873 5873 5872 5873 5873 5874 5873 5872 5872 5872 5872 5871 5870 5869 5868 5868 5868
5869 5869 5869 5870 5869 5869 5869 5869 5869 5869 5869 5869 5868 5869 5869 5870 5871 5871 5871 5871 5871 5871 5871 5870 5870 5870 5870 5870 5870 5870 5869 5869 5869 5868 5868 5868 5868 5867 5867 5866 5865 5864 5864
5867 5867 5867 5867 5868 5868 5868 5868 5868 5868 5868 5868 5868 5868 5867 5867 5868 5868 5867 5868 5867 5867 5867 5866 5867 5866 5866 5866 5866 5866 5866 5865 5864 5864 5863 5863 5863 5862 5861 5861 5861 5860 5859
5866 5866 5866 5866 5865 5865 5865 5865 5865 5865 5865 5865 5866 5865 5864 5863 5864 5864 5864 5864 5864 5864 5864 5864 5863 5863 5862 5862 5862 5861 5861 5860 5860 5860 5859 5859 5858 5857 5856 5855 5855 5855 5854
5863 5863 5863 5863 5863 5863 5863 5862 5862 5861 5861 5861 5861 5860 5860 5860 5860 5860 5860 5860 5860 5860 5860 5859 5859 5859 5859 5858 5857 5856 5855 5855 5855 5855 5854 5853 5853 5852 5852 5851 5849 5848 5847
5861 5861 5860 5859 5858 5858 5859 5860 5860 5859 5858 5858 5858 5858 5857 5857 5857 5857 5856 5856 5856 5856 5856 5855 5854 5854 5854 5854 5853 5851 5851 5850 5849 5849 5848 5847 5846 5845 5845 5845 5844 5843 5841
5858 5858 5857 5856 5856 5856 5857 5856 5856 5856 5856 5856 5855 5855 5855 5854 5854 5853 5853 5852 5852 5852 5851 5851 5850 5849 5848 5847 5846 5846 5845 5844 5843 5843 5842 5840 5839 5838 5837 5836 5835 5835 5834
5855 5855 5854 5853 5853 5853 5853 5853 5853 5853 5853 5852 5852 5851 5850 5849 5849 5848 5848 5847 5847 5846 5846 5845 5844 5844 5842 5842 5841 5839 5837 5836 5835 5834 5833 5832 5831 5831 5829 5827 5827 5826 5825
5850 5849 5849 5849 5848 5848 5848 5849 5849 5849 5849 5848 5848 5847 5846 5845 5843 5843 5842 5841 5840 5839 5838 5837 5836 5835 5834 5833 5831 5830 5829 5828 5827 5826 5824 5822 5821 5820 5820 5819 5818 5816 5815
5845 5845 5844 5844 5844 5844 5844 5843 5843 5843 5844 5844 5844 5843 5842 5841 5839 5838 5837 5836 5835 5834 5833 5832 5830 5829 5827 5825 5823 5821 5820 5818 5816 5815 5813 5812 5811 5810 5808 5806 5805 5805 5804
5839 5839 5839 5839 5839 5839 5839 5839 5839 5839 5839 5839 5838 5838 5837 5835 5834 5833 5832 5831 5830 5828 5827 5826 5823 5821 5819 5817 5815 5813 5811 5808 5806 5804 5802 5801 5799 5797 5796 5794 5793 5792 5790
5834 5834 5833 5833 5833 5833 5834 5835 5835 5834 5833 5832 5831 5831 5830 5829 5828 5827 5826 5824 5822 5821 5819 5818 5816 5814 5812 5810 5807 5804 5802 5799 5796 5793 5791 5789 5787 5784 5782 5780 5778 5777 5776
5828 5828 5829 5829 5828 5828 5828 5828 5828 5827 5827 5826 5826 5825 5824 5823 5821 5820 5818 5817 5815 5813 5811 5809 5807 5805 5802 5799 5796 5792 5791 5787 5783 5782 5778 5776 5773 5770 5767 5764 5763 5761 5760
5821 5822 5822 5822 5822 5821 5821 5820 5820 5820 5820 5820 5819 5817 5816 5814 5812 5811 5809 5806 5804 5802 5799 5797 5793 5791 5789 5786 5784 5780 5777 5776 5768 5767 5766 5763 5759 5755 5751 5750 5747 5744 5743
5814 5815 5814 5814 5813 5813 5813 5812 5813 5813 5813 5812 5810 5809 5807 5805 5803 5801 5798 5795 5792 5789 5786 5783 5780 5777 5775 5772 5769 5765 5761 5758 5755 5751 5749 5745 5742 5738 5734 5731 5728 5726 5723
5805 5805 5805 5805 5805 5805 5805 5805 5805 5805 5805 5804 5803 5801 5799 5797 5794 5791 5787 5783 5779 5776 5773 5770 5767 5763 5759 5756 5751 5746 5742 5738 5736 5737 5731 5724 5722 5718 5714 5711 5707 5703 5702
5797 5797 5797 5797 5797 5797 5797 5796 5796 5796 5795 5794 5792 5790 5787 5785 5782 5779 5776 5773 5768 5763 5760 5756 5752 5748 5744 5740 5736 5730 5724 5716 5712 5711 5712 5710 5703 5695 5691 5688 5684 5681 5678
5789 5789 5789 5789 5789 5789 5789 5788 5787 5787 5785 5783 5781 5779 5777 5774 5770 5766 5763 5758 5755 5751 5747 5742 5738 5734 5729 5724 5718 5712 5706 5700 5692 5685 5682 5680 5680 5678 5670 5664 5658 5656 5654